Location: Unspecified
(35.0317°N, 0.0000°E)
Time: 08:23:52
(UTC+00:00)

ISS - Visible Passes

Search period start: 19 May 2019 00:00
Search period end: 29 May 2019 00:00
Orbit: 408 x 410 km, 51.6° (Epoch: 19 May)

Date Brightness Start Highest point End Pass type
(mag) Time Alt. Az. Time Alt. Az. Time Alt. Az.
19 May -3.1 03:20:07 10° NW 03:23:22 55° NE 03:26:37 10° ESE visible
19 May -3.6 19:58:26 10° SW 20:01:42 72° NW 20:05:00 10° NE visible
19 May -0.2 21:37:44 10° NW 21:38:47 11° NNW 21:39:49 10° N visible
20 May -1.8 02:29:27 10° NNW 02:32:23 29° NE 02:35:19 10° E visible
20 May -2.6 04:06:12 10° WNW 04:08:51 22° SW 04:11:28 10° S visible
20 May -0.6 20:45:23 10° WNW 20:47:36 17° NNW 20:49:50 10° NNE visible
21 May0.201:46:05E01:46:05E01:37:03NNWvisible
21 May -2.7 03:19:19 29° S 03:19:19 29° S 03:21:13 10° SSE visible
21 May -1.4 19:53:40 10° W 19:56:31 27° NW 19:59:23 10° NNE visible
23 May -0.6 19:49:44 10° WNW 19:51:28 13° NNW 19:53:11 10° N visible
27 May -0.2 22:55:17 10° NNW 22:55:24 11° NNW 22:55:24 11° NNW visible
28 May -0.7 22:05:05 10° N 22:06:03 12° NNE 22:06:03 12° NNE visible
